Noril'sk, Russia
Current Conditions -  °F | °C
As of 11:30 PM on Thursday 23 Oct 2014 (Local Time) from USNN Reporting Station
Clear Clear  
Wind Chill: -8°   Ceiling: Unl
Heat Index:   Visibility: 6mi
Dew Point:   Wind: 11mph
Humidity: 79%   Direction: 80°E
Pressure: 30"   Gusts: NA
Location:  69.32°N, 88.2°E
Report Text: USNN 231630Z 08005MPS CAVOK M14/M17 Q1016 NOSIG RMK QFE75803410165
Loading
Personal Weather Stations






























Interactive Weather Map
Tropical Storm Tracking
New forecast layout! Learn more

10-Day Weather Forecast

Advertisements
Track Severe Weather on mobile